Regional Weather Roundup
Issued by NWS

Home | Current Version | Previous Version | Text Only | Print | Product List | Glossary On
Versions: 1 2 3 4 5 6 7 8 9 10 11 12 13 14 15 16 17 18 19 20 21 22 23 24 25 26 27 28 29 30 31 32 33 34 35 36 37 38 39 40 41 42 43 44 45 46 47 48 49 50
000
ASUS45 KREV 300610
RWRNV
NEVADA REGIONAL WEATHER ROUNDUP
NATIONAL WEATHER SERVICE RENO NV
1100 PM PDT FRI JUL 29 2016

NOTE: "FAIR" INDICATES FEW OR NO CLOUDS BELOW 12,000 FEET WITH NO
SIGNIFICANT WEATHER AND/OR OBSTRUCTIONS TO VISIBILITY.

NVZ001-003-004-300700-
WESTERN NEVADA

CITY           SKY/WX    TMP DP  RH WIND       PRES   REMARKS
RENO           CLEAR     85  41  21 W10       30.02S
6HR MIN TEMP:  85; 6HR MAX TEMP: 102;

CARSON CITY    FAIR      77  39  25 CALM      30.07S
MINDEN         FAIR      68  43  40 SE9       30.07S
PYRAMID LAKE     N/A     86 N/A N/A NW1         N/A
FALLON         MOCLDY    84  45  25 S5        29.94R
6HR MIN TEMP:  84; 6HR MAX TEMP: 104;

LOVELOCK       MOCLDY    93  42  17 VRB7G21   29.94R
6HR MIN TEMP:  87; 6HR MAX TEMP: 107;

HAWTHORNE      CLEAR     82  39  21 S6        30.00F
$$

NVZ002-CAZ072-073-300700-
NORTHERN AND CENTRAL SIERRA

CITY           SKY/WX    TMP DP  RH WIND       PRES   REMARKS
S. LAKE TAHOE  CLEAR     62  42  47 CALM      30.20F
6HR MIN TEMP:  62; 6HR MAX TEMP:  88;

TRUCKEE        CLEAR     61  39  44 CALM      30.19S
SQUAW VLY 8000 NOT AVBL
SUSANVILLE     CLEAR     82  45  26 W7        30.00S
MAMMOTH LAKES    N/A     66  40  38 CALM      30.28F
6HR MIN TEMP:  65; 6HR MAX TEMP:  88;

BRIDGEPORT       N/A     63  35  35 CALM      30.23F
$$

NVZ030-031-036-300700-
NORTHERN NEVADA

CITY           SKY/WX    TMP DP  RH WIND       PRES   REMARKS
ELKO           MOCLDY    83  38  20 W5        30.02R
6HR MIN TEMP:  83; 6HR MAX TEMP:  97; 6HR PCP: TRACE;

WINNEMUCCA     MOCLDY    83  40  21 E8        29.95S
6HR MIN TEMP:  82; 6HR MAX TEMP: 103;

WENDOVER       PTCLDY    81  37  21 SW9       29.94S
$$

NVZ035-037-300700-
CENTRAL NEVADA

CITY           SKY/WX    TMP DP  RH WIND       PRES   REMARKS
ELY            MOCLDY    62  49  62 E8        30.19R
6HR MIN TEMP:  62; 6HR MAX TEMP:  82;

EUREKA           N/A     76  44  32 CALM      30.16S
6HR MIN TEMP:  75; 6HR MAX TEMP:  88;

$$

NVZ013-014-300700-
SOUTH CENTRAL NEVADA

CITY           SKY/WX    TMP DP  RH WIND       PRES   REMARKS
TONOPAH        MOCLDY    76  45  33 NW6       30.12F
6HR MIN TEMP:  76; 6HR MAX TEMP:  97; 6HR PCP: TRACE;

$$

NVZ017-020-022-300700-
SOUTHERN NEVADA

CITY           SKY/WX    TMP DP  RH WIND       PRES   REMARKS
LAS VEGAS      CLOUDY    98  47  17 N12       29.78R
6HR MIN TEMP:  98; 6HR MAX TEMP: 112;

N. LAS VEGAS   CLOUDY    96  51  21 N6        29.80F
6HR MIN TEMP:  95; 6HR MAX TEMP: 111; 6HR PCP: TRACE;

NELLIS AFB     CLOUDY    95  54  25 NE14      29.77F
6HR MIN TEMP:  94; 6HR MAX TEMP: 110; 6HR PCP:  0.01;

HENDERSON      CLOUDY    97  52  21 N9        29.85R
6HR MIN TEMP:  97; 6HR MAX TEMP: 111;

MERCURY        MOCLDY    92  47  21 E13       29.89F
6HR MIN TEMP:  92; 6HR MAX TEMP: 110; 6HR PCP: TRACE;

$$



USA.gov is the U.S. government's official web portal to all federal, state and local government web resources and services.